Startseite
Über Mich
AHP4
Galerie
Sehschlangen
Tourenbuch
Bookmarks
Elektronik
Bewertung
Geschichten
[Tagesmessung] [Jahreswerte] [Information]

Messwerte vom 08.04.2022

Die letzten Messwerte von 23:58:45 Uhr:
KategorieMesswert
Temperatur [°C]2
Luftdruck [mBar]980
Sonneneinstrahlung0
Wind [km/h]0 aus Süd
Niederschlag [l/m²]0
rel.Luftfeucht.96.6%
CO2 [ppm]404

Diagramme
Messwerte vom 08.04.2022
Tagesaggregation
KategorieMinimumMaximumSchnittSumme
Temperatur [°C]2116.0958
Luftdruck [mBar]969982978.3021
Sonneneinstrahlung242111.6229
Wind [km/h]35
rF [%]47.396.680.98
Niederschlag [l/m²]3.605
CO2 [ppm]401732473.7
Einordnung alsVegetationstag

Messungen an benachbarten Tagen: Zur Jahresaggregation 2022
Tabelle aller Messwerte
UhrzeitTemperatur [°C]Luftdruck [mBar]SonneWind [km/h]RichtungRegen [l/m²]rF [%]CO2 [ppm]
00:01:49 7 969 0 18 SW 0 87.2 406
00:04:49 7 969 0 8 SW 0 86.2 406
00:07:51 7 970 0 14 W 0 85.9 404
00:10:48 7 969 0 35 SW 0 85.1 408
00:13:48 7 969 0 7 SO 0 84.5 407
00:16:46 7 969 0 15 S 0 84.5 406
00:19:48 7 969 0 7 SW 0 84.9 404
00:22:48 7 970 0 15 SW 0 83.9 407
00:25:48 7 970 0 5 SW 0 82.9 405
00:28:47 7 970 0 16 SW 0 83.5 405
00:31:49 7 969 0 4 SO 0 82.1 407
00:34:48 7 969 0 5 SW 0 82.4 404
00:37:44 7 970 0 4 N 0 82.7 404
00:40:45 7 970 0 10 O 0 82.6 404
00:43:47 7 970 0 34 S 0 83.1 407
00:46:46 7 970 0 9 S 0 84 407
00:49:45 6 971 0 4 S 0 84 407
00:52:47 6 970 0 18 S 0 84.7 405
00:55:45 6 970 0 14 NW 0.2575 84.5 407
00:58:45 6 970 0 8 W 0 85.5 404
01:01:47 6 970 0 8 O 0 85.5 407
01:04:45 6 975 0 3 W 0 85.9 404
01:07:46 6 971 0 9 W 0 86 404
01:10:47 6 971 0 5 SO 0 85.4 407
01:13:47 6 972 0 4 N 0 85 404
01:16:49 7 971 0 18 W 0 84.5 406
01:19:44 7 971 0 6 W 0 84.4 404
01:22:47 7 971 0 12 NW 0 84.4 404
01:25:47 7 972 0 24 W 0 84.5 404
01:28:48 7 972 0 14 W 0 84.3 407
01:31:45 7 972 0 14 W 0 84.2 406
01:34:48 7 972 0 25 NW 0 83.9 408
01:37:45 7 972 0 14 W 0 84.4 403
01:40:45 6 972 0 8 S 0 85.4 404
01:43:46 6 972 0 8 O 0 86.7 404
01:46:47 6 973 0 9 SW 0 86.9 407
01:49:47 6 973 0 18 SW 0 87 404
01:52:46 6 973 0 6 NW 0 87.5 404
01:55:44 6 973 0 19 W 0 87.7 404
01:58:45 6 972 0 15 W 0 88.2 404
02:01:48 6 973 0 25 W 0 89.1 404
02:04:48 6 972 0 13 SW 0 89.2 404
02:07:47 6 973 0 24 W 0 89.2 404
02:10:48 6 972 0 19 SW 0 89.2 407
02:13:48 6 973 0 14 SW 0 88.9 407
02:16:47 6 973 0 15 SW 0 89.1 401
02:19:45 6 973 0 9 NW 0 89.1 406
02:22:48 6 973 0 27 SW 0 89 404
02:25:51 6 973 0 13 SW 0 89.2 404
02:28:46 6 973 0 9 SW 0 89.4 407
02:31:48 6 972 0 10 NW 0 89.9 407
02:34:47 6 973 0 27 N 0 90.7 407
02:37:46 6 973 0 15 SW 0 91.6 407
02:40:47 6 973 0 11 S 0 92.5 407
02:43:46 5 973 0 17 W 0 93.8 407
02:46:46 5 973 0 9 SW 0 94.6 404
02:49:45 5 973 0 4 SW 0 95.1 407
02:52:48 5 973 0 10 SW 0 95.5 404
02:55:48 5 974 0 11 SW 0 96.1 404
02:58:47 5 973 0 8 NO 0 95.9 407
03:01:47 5 973 0 11 SW 0 95.3 405
03:04:48 5 973 0 15 SW 0 95.2 407
03:07:48 5 973 0 6 NW 0 95.2 404
03:10:46 5 973 0 7 W 0 95.3 404
03:13:46 5 973 0 11 SO 0 95.1 406
03:16:46 5 973 0 13 S 0 95.1 404
03:19:48 5 974 0 8 SO 0 95 407
03:22:46 5 973 0 24 NW 0 94.7 404
03:25:47 6 973 0 17 SW 0 93.8 401
03:28:44 6 973 0 10 S 0 93.3 404
03:31:49 6 973 0 9 W 0 92.9 404
03:34:48 6 974 0 5 NO 0 92.6 407
03:37:47 6 975 0 12 SW 0 92.1 404
03:40:45 6 974 0 24 W 0 91.5 407
03:43:45 6 974 0 8 W 0 91.4 407
03:46:45 6 974 0 14 W 0 91.4 407
03:49:46 6 974 0 19 W 0 91.4 406
03:52:49 6 975 0 6 W 0 91.5 404
03:55:47 6 975 0 9 W 0 92 407
03:58:46 5 974 0 27 W 0 92.9 407
04:01:48 5 976 0 15 SW 0.2575 95.4 405
04:04:46 5 975 0 4 W 0.2575 95.6 403
04:07:48 5 975 0 13 W 0.2575 96.6 404
04:10:48 5 976 0 14 W 0.515 96.6 407
04:13:46 4 976 0 7 NO 0 96.6 404
04:16:46 4 975 0 12 W 0 96.6 407
04:19:47 4 976 0 18 NW 0 96.6 404
04:22:47 4 976 0 9 N 0 96.6 407
04:25:46 4 975 0 9 W 0 96.6 407
04:28:46 4 976 0 16 W 0 96.6 407
04:31:46 4 976 0 19 S 0 96.6 404
04:34:45 4 976 0 19 O 0.2575 96.6 405
04:37:47 4 976 0 8 W 0 96.6 404
04:40:47 4 976 0 11 SW 0 96.6 407
04:43:47 4 976 0 10 SW 0 96.6 404
04:46:46 4 976 0 11 NW 0 96.6 407
04:49:48 4 976 0 18 W 0 96.6 406
04:52:48 4 976 0 10 SO 0 96.6 404
04:55:46 4 976 0 12 W 0 96.6 407
04:58:48 4 976 0 9 SW 0 96.6 407
05:01:46 4 976 0 11 W 0 96.6 404
05:04:46 4 976 0 14 W 0 96.6 407
05:07:48 4 976 0 9 NW 0 96.6 407
05:10:49 4 976 0 13 SW 0 96.6 404
05:13:46 4 976 0 10 SW 0 96.6 402
05:16:46 4 976 0 6 NW 0 96.6 407
05:19:46 4 976 0 7 SW 0 96.6 406
05:22:48 4 977 0 12 SW 0 96.6 407
05:25:50 4 976 0 6 SW 0 96.6 405
05:28:46 4 976 0 6 W 0 96.6 402
05:31:49 4 976 0 14 NW 0 96.6 406
05:34:48 4 976 0 8 NW 0 96.6 407
05:37:46 4 976 0 9 SW 0 96.6 404
05:40:47 4 977 0 9 SW 0 96.6 405
05:43:46 4 977 0 6 S 0 96.6 404
05:46:45 4 977 0 7 NW 0 96.6 404
05:49:46 4 977 0 11 SO 0 96.6 404
05:52:45 4 977 0 8 W 0 96.6 404
05:55:45 4 976 0 4 SW 0 96.6 404
05:58:48 4 977 0 12 NW 0 96.6 407
06:01:48 4 976 0 18 NW 0 96.6 404
06:04:47 4 976 0 10 SW 0 96.6 404
06:07:47 4 977 0 15 S 0 96.6 405
06:10:47 4 977 0 6 W 0 96.6 405
06:13:48 4 977 0 4 W 0.2575 96.6 407
06:16:48 4 977 6 6 W 0 96.6 408
06:19:46 4 977 11 2 W 0 96.6 407
06:22:50 4 976 18 12 S 0 96.6 401
06:25:48 4 977 28 6 S 0 96.6 407
06:28:46 4 977 37 9 S 0 96.6 405
06:31:49 3 977 45 10 SW 0 96.6 407
06:34:48 3 977 53 14 S 0 96.6 404
06:37:47 4 978 43 10 S 0 96.6 408
06:40:47 4 977 66 3 W 0 96.6 405
06:43:45 4 978 63 5 NO 0 96.6 404
06:46:49 4 978 90 7 SW 0 96.6 407
06:49:48 4 979 100 7 SW 0 96.6 409
06:52:49 4 978 98 8 SW 0 96.6 406
06:55:49 4 978 109 4 SW 0 96.6 409
06:58:47 4 978 75 16 S 0 96.6 404
07:01:48 4 978 53 9 NW 0 96.6 408
07:04:46 4 979 63 10 S 0 96.6 404
07:07:49 4 979 76 8 SW 0.2575 96.6 402
07:10:47 4 979 86 9 W 0.2575 96.6 404
07:13:48 4 979 80 14 NW 0 96.6 407
07:16:45 4 979 74 9 S 0.2575 96.6 407
07:19:48 4 979 84 16 NW 0 96.6 404
07:22:48 3 979 104 10 S 0.2575 96.6 404
07:25:48 3 980 137 8 S 0.2575 96.6 406
07:28:49 3 980 118 8 W 0 96.6 404
07:31:47 3 980 120 9 W 0 96.6 404
07:34:46 3 980 149 4 N 0 96.6 404
07:37:47 3 980 144 11 N 0 96.6 404
07:40:47 3 980 141 4 SO 0 96.6 404
07:43:47 3 980 160 2 NW 0 96.6 404
07:46:48 3 980 185 5 S 0 96.6 407
07:49:49 3 980 184 9 NW 0 96.6 407
07:52:48 3 980 189 5 SO 0 96.6 408
07:55:49 3 980 182 8 W 0 96.6 404
07:58:48 3 980 183 7 W 0 96.6 404
08:01:51 3 980 184 10 W 0 96.6 404
08:04:48 3 980 185 6 SW 0 96.6 407
08:07:49 3 980 185 8 W 0 96.6 404
08:10:49 3 980 186 5 SW 0 96.6 404
08:13:49 3 980 188 1 S 0 96.6 407
08:16:48 3 980 188 9 SW 0 96.6 407
08:19:47 3 980 188 7 W 0 96.6 407
08:22:49 3 980 189 10 W 0 96.6 407
08:25:48 3 980 189 4 W 0 96.6 407
08:28:50 3 980 190 4 SW 0 96.6 406
08:31:48 3 980 190 8 S 0 96.6 408
08:34:45 3 980 191 7 S 0 96.6 404
08:37:50 3 980 192 5 SO 0 96.6 401
08:40:49 3 980 198 3 S 0 96.6 407
08:43:49 4 980 209 26 W 0 96.6 404
08:46:49 4 980 210 4 SW 0 96.6 407
08:49:48 4 980 216 4 SW 0 96.6 408
08:52:48 4 980 218 8 W 0 96.6 404
08:55:50 5 980 203 15 SW 0 96.6 407
08:58:48 5 980 199 7 W 0 96.6 408
09:01:48 5 980 197 8 W 0 96.6 404
09:04:49 4 981 196 11 SW 0 96.6 403
09:07:50 4 980 195 11 SW 0 96.6 404
09:10:49 4 980 207 4 S 0 96.6 407
09:13:52 4 980 201 12 SW 0 96.6 407
09:16:49 4 981 204 10 S 0 96.6 404
09:19:49 4 980 209 7 SW 0 96.6 404
09:22:49 4 980 197 12 NW 0 96.6 404
09:25:48 4 980 197 6 SW 0 96.6 404
09:28:50 4 980 196 7 NW 0 96.6 404
09:31:49 4 981 198 7 W 0 96.6 404
09:34:48 4 980 204 5 S 0 96.6 407
09:37:47 4 981 200 1 W 0 96.6 404
09:40:48 5 980 203 6 SW 0 96.6 407
09:43:46 5 980 203 3 O 0 96.6 404
09:46:50 5 980 208 7 SO 0 96.6 407
09:49:47 5 980 217 17 W 0 96.6 404
09:52:47 6 980 214 6 SW 0 96.6 404
09:55:47 6 981 220 5 W 0 96.5 408
09:58:50 6 981 221 10 W 0 95.8 404
10:01:47 6 981 221 12 W 0 93.3 414
10:04:48 6 980 213 12 W 0 92.1 407
10:07:49 6 980 199 14 NW 0 90.6 407
10:10:48 6 980 194 11 SW 0 90.4 407
10:13:48 6 981 201 21 NW 0 90.7 404
10:16:47 5 981 205 3 SW 0 91.4 404
10:19:48 5 980 205 15 SO 0 93.1 408
10:22:49 5 980 204 3 SW 0.2575 92.2 407
10:25:47 5 981 206 4 NW 0 92.1 406
10:28:48 6 981 207 4 SO 0 91.6 405
10:31:51 6 980 208 4 SO 0 92.1 405
10:34:50 6 981 209 1 NW 0 92 413
10:37:50 6 980 211 16 O 0 89 410
10:40:48 6 981 210 6 S 0 88.9 405
10:43:48 6 981 215 2 SO 0 89.9 407
10:46:48 7 981 220 2 S 0 90.7 410
10:49:47 7 982 221 9 O 0 89.7 407
10:52:45 7 981 213 3 O 0 86.8 407
10:55:48 7 981 218 5 S 0 86 413
10:58:47 7 981 225 4 S 0 85.6 416
11:01:49 7 981 227 10 S 0 86.1 418
11:04:46 8 981 224 10 S 0 85.2 407
11:07:46 8 980 218 4 S 0 84 401
11:10:49 8 981 216 17 SO 0 82.6 407
11:13:47 7 981 212 7 SO 0 81.8 419
11:16:48 7 981 224 11 S 0 80.7 428
11:19:46 7 981 221 19 SO 0 81.5 430
11:22:47 7 981 224 11 NW 0 80.1 431
11:25:46 7 981 221 8 S 0 78.7 433
11:28:58 8 982 226 4 NO 0 79.9 445
11:31:48 8 981 222 2 SW 0 74.9 454
11:34:47 8 981 220 4 SO 0 75 458
11:37:48 8 981 224 8 SW 0 77.8 454
11:40:46 7 981 225 9 N 0 75.6 451
11:43:49 8 981 228 4 SW 0 75.1 442
11:46:48 8 981 225 5 SW 0 75.2 443
11:49:49 8 982 218 9 NW 0 74.2 443
11:52:47 8 981 211 9 W 0 72.8 443
11:55:46 8 981 209 2 W 0 71.9 442
11:58:48 7 981 209 9 S 0 70.8 443
12:01:47 7 981 215 3 O 0 72.9 454
12:04:49 7 981 213 4 SO 0 73.4 457
12:07:49 7 982 207 5 NW 0 74.2 458
12:10:47 7 981 199 1 N 0 73.5 462
12:13:49 7 981 193 3 SO 0 73.8 456
12:16:47 7 981 205 6 SO 0 74.4 457
12:19:49 7 980 206 3 SW 0 74.8 457
12:22:46 7 981 203 4 S 0 75.3 457
12:25:48 7 980 196 6 S 0 73.7 453
12:28:46 6 981 201 6 S 0 73.3 453
12:31:51 6 981 212 18 SW 0 72.7 459
12:34:49 6 981 219 5 SO 0 72.9 460
12:37:48 7 980 229 1 N 0 73.5 468
12:40:47 7 980 230 2 SW 0 73.9 471
12:43:46 8 981 228 4 W 0 75.3 480
12:46:48 9 980 229 4 SW 0 72.7 480
12:49:52 9 980 228 7 NW 0 66.6 480
12:52:47 9 980 224 10 SO 0 64.7 477
12:55:48 9 980 225 5 S 0 65 474
12:58:48 9 980 220 10 SW 0 66.1 481
13:01:49 9 980 211 10 SW 0 66.3 480
13:04:47 9 980 203 4 S 0 66.4 483
13:07:47 8 980 198 5 W 0 66.3 486
13:10:51 8 980 204 12 W 0 66.4 492
13:13:46 8 980 212 11 W 0 69.4 492
13:16:48 8 980 219 5 W 0 71.7 489
13:19:47 8 980 218 2 S 0 72.6 478
13:22:50 8 980 225 14 SO 0 70.8 478
13:25:49 8 980 230 12 SW 0 69.2 474
13:28:46 9 980 231 8 W 0 69 477
13:31:47 9 980 231 8 W 0 67.5 471
13:34:50 10 980 232 16 NW 0 66.8 471
13:37:49 10 980 232 7 W 0 68.2 478
13:40:49 10 980 233 22 W 0 66.7 486
13:43:49 11 980 233 8 S 0 65 478
13:46:48 11 980 233 6 S 0 62.9 474
13:49:50 11 980 230 9 SW 0 62.7 709
13:52:48 11 980 225 12 NW 0 62.2 718
13:55:49 10 980 219 2 NW 0 63.8 717
13:58:47 10 980 204 13 S 0 64.1 720
14:01:48 10 980 202 6 SW 0 63.7 727
14:04:47 9 980 211 6 W 0 65.7 732
14:07:47 9 980 222 16 S 0 66.1 731
14:10:50 9 980 223 8 W 0 67 718
14:13:48 9 980 223 8 SW 0 67.9 709
14:16:48 9 980 222 3 W 0 68.4 710
14:19:48 9 980 227 4 W 0 68.4 702
14:22:50 9 980 233 6 NW 0 68.7 700
14:25:47 10 980 234 5 W 0 69.5 700
14:28:51 10 980 235 10 NW 0 65.7 700
14:31:50 10 980 234 6 W 0 65.6 708
14:34:49 11 980 233 6 W 0 63 709
14:37:49 11 980 234 7 W 0 62.7 708
14:40:48 11 980 233 4 W 0 62.4 700
14:43:47 11 980 234 7 S 0 59.3 700
14:46:50 11 980 233 8 SW 0 59.4 701
14:49:47 11 980 231 6 W 0 60.2 696
14:52:46 11 980 231 5 W 0 60.6 700
14:55:50 11 980 232 7 SW 0 60.5 701
14:58:49 11 980 232 2 S 0 59.8 697
15:01:48 10 980 231 2 SW 0 58.7 694
15:04:48 10 980 234 7 NW 0 59.3 695
15:07:50 10 980 232 5 SW 0 58.8 700
15:10:50 11 980 237 4 SW 0 58.6 705
15:13:49 11 980 232 3 W 0 57.3 710
15:16:49 11 980 232 0 NW 0 56.7 712
15:19:46 11 980 235 3 0 56.1 709
15:22:50 11 980 234 10 NW 0 57.5 701
15:25:49 11 980 227 3 SW 0 57.6 694
15:28:49 10 980 220 7 W 0 53.5 688
15:31:46 10 980 215 1 NW 0 53.5 550
15:34:48 10 979 228 4 SW 0 54.2 538
15:37:47 10 980 230 5 SW 0 53.5 591
15:40:48 10 980 230 1 W 0 52.2 603
15:43:46 10 980 228 6 SW 0 53.6 597
15:46:48 10 979 226 3 NW 0 54.6 582
15:49:48 10 980 229 8 SO 0 54.8 571
15:52:47 10 979 228 9 W 0 53.7 559
15:55:48 10 980 228 5 0 53.1 565
15:58:48 10 980 226 6 S 0 52.8 584
16:01:46 10 980 228 12 W 0 52.6 594
16:04:47 10 980 230 4 O 0 54.4 597
16:07:49 10 979 229 15 SW 0 54.4 597
16:10:49 10 980 233 19 O 0 54.4 597
16:13:49 10 980 230 6 W 0 55.6 601
16:16:51 10 980 229 13 SW 0 57 600
16:19:48 10 979 231 5 W 0 55.3 601
16:22:48 10 980 232 7 S 0 55.4 604
16:25:49 10 980 230 9 SW 0 55.5 611
16:28:50 10 980 230 4 SW 0 54.5 613
16:31:49 10 980 231 5 S 0 54.8 618
16:34:49 10 980 231 9 SW 0 55.6 618
16:37:46 10 980 230 5 S 0 55.6 612
16:40:48 10 980 230 10 W 0 55.7 619
16:43:48 10 979 228 2 N 0 54.1 618
16:46:49 10 979 229 8 NW 0 54.7 621
16:49:48 10 980 231 2 S 0 55.9 622
16:52:48 10 980 233 16 W 0 55.2 621
16:55:49 10 980 232 8 SW 0 54.9 627
16:58:48 10 979 232 4 SW 0 54.7 625
17:01:47 10 980 225 2 W 0 54.3 625
17:04:30 9 980 220 1 S 0 47.3 624
17:07:48 9 980 220 3 S 0 53.6 627
17:10:48 9 979 219 3 NW 0 54.5 636
17:13:47 9 980 219 6 O 0 55.6 638
17:16:47 9 979 217 1 SW 0 56.1 640
17:19:48 9 980 215 3 NW 0 56.1 650
17:22:48 9 980 214 2 NO 0 56.5 657
17:25:46 9 980 215 5 W 0 55.9 655
17:28:48 9 980 215 8 SW 0 56 665
17:31:47 9 979 216 6 SO 0 55.6 660
17:34:47 9 980 219 7 W 0 56.8 664
17:37:47 9 980 221 4 SW 0 58.2 661
17:40:48 9 980 221 6 W 0 57.3 665
17:43:46 9 980 223 4 O 0 57.6 667
17:46:49 9 979 225 7 W 0 56.9 664
17:49:48 9 980 225 8 W 0 57.6 662
17:52:47 9 980 223 4 SW 0 57.7 659
17:55:48 9 980 224 2 NO 0 57 660
17:58:48 9 980 229 3 O 0 56.8 665
18:01:49 9 980 227 5 SW 0 57.9 665
18:04:46 9 980 226 4 S 0 57.1 668
18:07:49 9 980 242 5 SW 0 55.6 665
18:10:48 9 980 232 1 NW 0 56 668
18:13:48 9 980 237 4 NO 0 55 671
18:16:46 9 979 231 1 SW 0 54 667
18:19:48 9 980 229 2 SW 0 55.6 661
18:22:48 9 980 213 5 NW 0 55.8 661
18:25:51 9 980 204 8 SO 0 56.1 669
18:28:51 9 980 203 6 SW 0 56.3 674
18:31:49 8 980 207 5 SW 0 57.2 671
18:34:48 8 979 213 4 SW 0 57.6 677
18:37:48 8 980 224 3 SW 0 58.6 671
18:40:49 8 980 217 1 SO 0 58.8 675
18:43:49 8 980 214 2 O 0 58.8 677
18:46:47 8 980 205 1 W 0 58.9 680
18:49:47 8 980 206 3 W 0 58.5 683
18:52:48 8 980 209 1 S 0 59 693
18:55:49 8 980 212 7 SW 0 59.2 705
18:58:48 8 980 213 1 SW 0 58.9 698
19:01:48 8 980 218 2 O 0 58.8 702
19:04:50 8 980 206 1 SO 0 58.8 702
19:07:46 8 980 204 4 S 0 59.2 697
19:10:49 7 980 200 0 SO 0 59.9 702
19:13:47 7 980 132 4 SW 0 60.3 486
19:16:47 7 980 197 4 S 0 59.8 404
19:19:47 7 980 185 2 W 0 60 405
19:22:46 7 980 172 2 S 0 61.1 463
19:25:47 7 980 147 3 SW 0 61.7 521
19:28:48 7 980 121 1 SW 0 62.6 519
19:31:49 7 980 94 0 NO 0 62.8 495
19:34:47 7 980 75 0 SW 0 63 483
19:37:48 6 980 63 2 SW 0 63.6 475
19:40:48 7 980 54 3 SW 0 63.8 475
19:43:45 6 980 41 1 NO 0 64.4 470
19:46:47 6 980 29 5 SW 0 64.8 466
19:49:46 6 980 23 1 S 0 65 453
19:52:45 6 980 21 2 W 0 65.3 460
19:55:46 6 980 29 6 W 0 66.9 460
19:58:46 6 980 41 8 W 0 68 460
20:01:46 6 980 37 10 SW 0 70.4 457
20:04:47 6 980 33 3 W 0 75.3 457
20:07:48 6 980 27 12 W 0 76.1 446
20:10:50 6 980 22 2 N 0 77.5 454
20:13:45 5 980 16 5 W 0 77.7 452
20:16:49 5 980 11 10 N 0 78.6 438
20:19:49 5 980 6 4 NW 0 79.2 449
20:22:45 5 980 3 6 S 0 79.4 448
20:25:50 5 980 0 5 N 0 79.5 445
20:28:47 5 980 0 1 NW 0 79.5 451
20:31:45 5 980 0 2 NW 0 79.2 457
20:34:47 5 980 0 4 NW 0 79.2 454
20:37:45 5 980 0 0 W 0 79 451
20:40:46 5 980 0 0 W 0 78.8 436
20:43:45 5 980 0 0 W 0 78.5 442
20:46:46 5 980 0 0 W 0 78.7 445
20:49:45 5 980 0 0 W 0 78.9 450
20:52:46 5 980 0 0 W 0 79.3 445
20:55:46 5 980 0 0 W 0 79.3 450
20:58:45 4 980 0 0 W 0 79.3 450
21:01:45 4 980 0 0 W 0 79.8 446
21:04:49 5 981 0 2 NW 0 84.4 436
21:07:47 5 980 0 6 W 0 84 430
21:10:46 5 980 0 15 W 0 83.6 425
21:13:44 5 980 0 11 W 0 84.5 415
21:16:44 5 980 0 9 S 0 84.8 415
21:19:47 5 980 0 7 W 0 85.1 415
21:22:47 4 980 0 4 S 0 84.9 425
21:25:47 4 981 0 12 W 0 84.7 419
21:28:47 4 980 0 7 W 0 85.1 419
21:31:47 4 981 0 6 W 0 85.9 413
21:34:49 4 980 0 2 NW 0 86.5 413
21:37:50 4 980 0 2 NW 0 87.5 420
21:40:49 4 980 0 8 W 0 89.3 413
21:43:47 4 980 0 1 NW 0 89 416
21:46:47 3 980 0 1 W 0 88.7 413
21:49:45 3 980 0 1 W 0 88.4 419
21:52:46 3 980 0 2 W 0 89 415
21:55:46 3 980 0 0 W 0 88.9 419
21:58:46 3 980 0 0 NW 0 88.7 418
22:01:46 3 980 0 0 NW 0 89.3 412
22:04:47 3 980 0 0 NW 0 89.7 413
22:07:48 3 980 0 0 NW 0 89.4 413
22:10:48 2 980 0 0 NW 0 89.3 413
22:13:48 2 980 0 0 SO 0 89.8 407
22:16:47 2 980 0 1 SO 0 90.1 410
22:19:48 2 980 0 0 SO 0 90.6 407
22:22:44 2 980 0 0 S 0 90.9 407
22:25:47 2 980 0 0 S 0 91.2 407
22:28:47 2 980 0 0 S 0 91.2 404
22:31:47 2 980 0 0 S 0 91.6 413
22:34:47 2 980 0 0 SO 0 91.8 410
22:37:47 2 980 0 0 SO 0 92 410
22:40:49 2 980 0 0 SO 0 92 410
22:43:46 2 980 0 1 SW 0 92.3 413
22:46:45 2 980 0 1 S 0 94 407
22:49:45 2 980 0 1 S 0 94.8 404
22:52:47 2 980 0 0 SO 0 95.2 407
22:55:46 2 980 0 1 S 0 94.7 404
22:58:49 2 980 0 0 SO 0 94.6 404
23:01:46 2 980 0 1 S 0 94.6 407
23:04:45 2 980 0 1 S 0 95.2 407
23:07:47 2 980 0 0 S 0 95.1 405
23:10:47 2 980 0 0 S 0 94.8 407
23:13:45 2 980 0 0 S 0 94.8 406
23:16:47 2 980 0 0 S 0 95 405
23:19:47 2 980 0 0 S 0 95.2 402
23:22:48 2 980 0 0 SO 0 95.2 404
23:25:47 2 980 0 0 SW 0 95.2 404
23:28:47 2 980 0 0 SO 0 95.7 402
23:31:46 2 980 0 0 S 0 95.7 405
23:34:46 2 980 0 0 S 0 95.4 404
23:37:48 2 980 0 0 S 0 95.6 404
23:40:46 2 980 0 0 S 0 96 405
23:43:47 2 980 0 0 S 0 96.3 407
23:46:46 2 980 0 0 S 0 96.2 407
23:49:44 2 980 0 0 S 0 96.1 407
23:52:45 2 980 0 0 S 0 96 407
23:55:45 2 980 0 0 S 0 96.1 408
23:58:45 2 980 0 0 S 0 96.6 404

Letzte Änderung : 22-Jul-2022
Copyright Jens Köhler, Wolfsburg, Obere Dorfstraße 10d